This is the latest recevied weather packets stored in our database for station/object XE2G-31. If no packets are shown the sender has not sent any weather packets the latest 10 day(s).
| Time | Temp. | Humidity | Pressure | Rain* | Wind** | Luminosity | Snow |
|---|---|---|---|---|---|---|---|
| 1778124146 | 26.11° C | 50% | 871 hPa | - | - | - | - |
| 1778123199 | 26.11° C | 43% | 870 hPa | - | - | - | - |
| 1778122252 | 26.67° C | 41% | 870 hPa | - | - | - | - |
| 1778121305 | 26.67° C | 39% | 870 hPa | - | - | - | - |
| 1778120359 | 27.22° C | 37% | 869 hPa | - | - | - | - |
| 1778119412 | 27.22° C | 32% | 869 hPa | - | - | - | - |
| 1778118465 | 27.78° C | 30% | 869 hPa | - | - | - | - |
| 1778117518 | 27.78° C | 33% | 869 hPa | - | - | - | - |
| 1778116571 | 27.78° C | 34% | 869 hPa | - | - | - | - |
| 1778115624 | 28.33° C | 37% | 869 hPa | - | - | - | - |
| 1778114678 | 28.33° C | 37% | 868 hPa | - | - | - | - |
| 1778113731 | 29.44° C | 38% | 868 hPa | - | - | - | - |
| 1778112784 | 29.44° C | 35% | 868 hPa | - | - | - | - |
| 1778111837 | 30° C | 35% | 868 hPa | - | - | - | - |
| 1778110890 | 30.56° C | 35% | 868 hPa | - | - | - | - |
| 1778109943 | 30.56° C | 35% | 868 hPa | - | - | - | - |
| 1778108997 | 31.11° C | 35% | 868 hPa | - | - | - | - |
| 1778108050 | 31.11° C | 37% | 868 hPa | - | - | - | - |
| 1778107103 | 31.11° C | 38% | 868 hPa | - | - | - | - |
| 1778106156 | 31.67° C | 36% | 867 hPa | - | - | - | - |
| 1778105209 | 31.11° C | 31% | 867 hPa | - | - | - | - |
| 1778104262 | 32.22° C | 27% | 867 hPa | - | - | - | - |
| 1778103316 | 32.78° C | 27% | 867 hPa | - | - | - | - |
| 1778102369 | 32.78° C | 27% | 867 hPa | - | - | - | - |
| 1778101422 | 32.78° C | 26% | 867 hPa | - | - | - | - |
* Rain since midnight (hover to see other rain measurements)
** Current wind speed in m/s (hover to see current wind gust speed)